Change the Weather History Date:

Thursday, December 27, 2012

  Actual Average Record
Temperature  
Mean Temperature 34 °F 47 °F  
Max Temperature 43 °F 56 °F 77 °F (2005)
Min Temperature 25 °F 38 °F 17 °F (1983)
Degree Days  
Heating Degree Days 31 18  
Month to date heating degree days 312 454  
Since 1 July heating degree days 634 828  
Cooling Degree Days 0 0  
Month to date cooling degree days 28 0  
Year to date cooling degree days 3026 2411  
Moisture  
Dew Point 32 °F    
Average Humidity 88    
Maximum Humidity 100    
Minimum Humidity 76    
Precipitation  
Precipitation 0.08 in 0.13 in 3.12 in (1944)
Month to date precipitation 2.35 3.72  
Year to date precipitation 34.18 45.27  
Snow  
Snow 0.00 in - - ()
Month to date snowfall 1.0  
Since 1 July snowfall 1.0  
Snow Depth 0.00 in    
Sea Level Pressure  
Sea Level Pressure 30.03 in    
Wind  
Wind Speed 6 mph (ESE)    
Max Wind Speed 15 mph    
Max Gust Speed 20 mph    
Visibility 8 miles    
Events Rain    
T = Trace of Precipitation, MM = Missing Value Source: NWS Daily Summary

Daily Weather History Graph

Daily Weather History Graph

Search for Another Location

Airport or City:

Trip Planner

Search our weather history database for the weather conditions in past years. The results will help you decide how hot, cold, wet, or windy it might be!

Date:

Astronomy

Dec. 27, 2012 Rise Set
Actual Time 7:21 AM CST 5:24 PM CST
Civil Twilight 6:54 AM CST 5:51 PM CST
Nautical Twilight 6:23 AM CST 6:22 PM CST
Astronomical Twilight 5:54 AM CST 6:52 PM CST
Moon 5:06 PM CST (12/27) 6:35 AM CST (12/27)
Length of Visible Light 10h 56m
Length of Day
10h 02m
Full, 100% of the Moon is Illuminated
Dec 27
Full
Dec 28
Full
Jan 4
Last Quarter
Jan 11
New
Jan 18
First Quarter

Hourly Weather History & Observations

Time (CST) Temp. Windchill Dew Point Humidity Pressure Visibility Wind Dir Wind Speed Gust Speed Precip Events Conditions
12:53 AM 26.1 °F 21.9 °F 23.0 °F 88% 30.15 in 10.0 mi ESE 3.5 mph - N/A   Clear
1:15 AM 24.8 °F 19.1 °F 23.0 °F 93% 30.13 in 9.0 mi SE 4.6 mph - N/A   Scattered Clouds
1:24 AM 26.6 °F 19.1 °F 24.8 °F 93% 30.13 in 8.0 mi SE 6.9 mph - N/A   Mostly Cloudy
1:32 AM 26.6 °F 18.2 °F 24.8 °F 93% 30.13 in 8.0 mi SE 8.1 mph - N/A   Mostly Cloudy
1:53 AM 27.0 °F 20.5 °F 25.0 °F 92% 30.14 in 8.0 mi SE 5.8 mph - N/A   Overcast
2:53 AM 28.0 °F 22.8 °F 26.1 °F 92% 30.14 in 8.0 mi SSE 4.6 mph - N/A   Overcast
3:50 AM 26.6 °F - 24.8 °F 93% 30.12 in 9.0 mi Calm Calm - N/A   Scattered Clouds
3:53 AM 27.0 °F - 25.0 °F 92% 30.13 in 8.0 mi Calm Calm - N/A   Partly Cloudy
4:53 AM 27.0 °F - 25.0 °F 92% 30.12 in 9.0 mi Calm Calm - N/A   Clear
5:53 AM 27.0 °F 20.5 °F 24.1 °F 89% 30.12 in 8.0 mi ESE 5.8 mph - N/A   Clear
6:53 AM 28.0 °F 20.0 °F 25.0 °F 88% 30.12 in 9.0 mi ESE 8.1 mph - N/A   Clear
7:53 AM 28.0 °F 20.0 °F 25.0 °F 88% 30.12 in 9.0 mi ESE 8.1 mph - N/A   Clear
8:53 AM 30.9 °F 24.3 °F 27.0 °F 85% 30.12 in 10.0 mi ESE 6.9 mph - N/A   Scattered Clouds
9:53 AM 35.1 °F 27.9 °F 30.0 °F 82% 30.13 in 10.0 mi SE 9.2 mph - N/A   Clear
10:53 AM 37.9 °F 33.5 °F 30.0 °F 73% 30.12 in 10.0 mi Variable 5.8 mph - N/A   Partly Cloudy
11:53 AM 39.0 °F 32.8 °F 32.0 °F 76% 30.09 in 10.0 mi NE 9.2 mph - N/A   Overcast
12:40 PM 39.2 °F 33.0 °F 32.0 °F 75% 30.05 in 10.0 mi NE 9.2 mph - N/A   Overcast
12:53 PM 39.0 °F 33.4 °F 32.0 °F 76% 30.06 in 10.0 mi ENE 8.1 mph - N/A   Overcast
1:20 PM 39.2 °F 32.5 °F 33.8 °F 81% 30.03 in 10.0 mi ENE 10.4 mph - N/A   Overcast
1:53 PM 39.0 °F 31.8 °F 33.1 °F 79% 30.01 in 9.0 mi ENE 11.5 mph - N/A   Overcast
2:53 PM 39.0 °F 34.0 °F 33.1 °F 79% 29.99 in 10.0 mi East 6.9 mph - N/A   Overcast
3:53 PM 39.9 °F 35.8 °F 34.0 °F 79% 29.98 in 9.0 mi East 5.8 mph - N/A   Overcast
4:36 PM 39.2 °F 35.0 °F 33.8 °F 81% 29.97 in 9.0 mi East 5.8 mph - N/A   Overcast
4:53 PM 39.9 °F 35.1 °F 34.0 °F 79% 29.97 in 9.0 mi East 6.9 mph - N/A   Overcast
5:53 PM 41.0 °F 37.1 °F 35.1 °F 79% 29.96 in 10.0 mi ESE 5.8 mph - N/A   Overcast
6:28 PM 42.8 °F 38.6 °F 35.6 °F 76% 29.95 in 9.0 mi ESE 6.9 mph - N/A   Overcast
6:53 PM 42.1 °F 38.4 °F 37.0 °F 82% 29.96 in 10.0 mi ESE 5.8 mph - N/A   Overcast
7:53 PM 42.1 °F 36.1 °F 39.0 °F 89% 29.96 in 6.0 mi SE 10.4 mph - 0.00 in Rain Light Rain
8:20 PM 42.8 °F 37.0 °F 39.2 °F 87% 29.95 in 10.0 mi SE 10.4 mph - 0.00 in Rain Light Rain
8:53 PM 42.1 °F 36.1 °F 39.0 °F 89% 29.94 in 8.0 mi SE 10.4 mph - 0.00 in   Overcast
9:04 PM 42.8 °F 37.0 °F 39.2 °F 87% 29.94 in 7.0 mi SE 10.4 mph - N/A   Overcast
9:22 PM 42.8 °F 37.5 °F 39.2 °F 87% 29.93 in 7.0 mi SE 9.2 mph - 0.00 in Rain Light Rain
9:53 PM 42.1 °F 37.1 °F 39.9 °F 92% 29.93 in 5.0 mi ESE 8.1 mph - 0.00 in Rain Light Rain
10:15 PM 42.8 °F 38.0 °F 39.2 °F 87% 29.92 in 3.0 mi ESE 8.1 mph - 0.02 in Rain Light Rain
10:34 PM 42.8 °F 38.0 °F 42.8 °F 100% 29.93 in 7.0 mi ESE 8.1 mph - 0.03 in Rain Light Rain
10:53 PM 42.1 °F 40.2 °F 42.1 °F 100% 29.93 in 7.0 mi ESE 3.5 mph - 0.03 in Rain Light Rain
11:05 PM 42.8 °F 41.1 °F 42.8 °F 100% 29.92 in 4.0 mi East 3.5 mph - 0.02 in Rain Light Rain
11:53 PM 42.1 °F 40.2 °F 42.1 °F 100% 29.93 in 8.0 mi ENE 3.5 mph - 0.05 in Rain Light Rain